CommID,deviceName,DataDateTime,GPSLatitude,GPSLongitude,Submerged,gpsQuality,BatteryVoltage,SST,IridiumLatitude,IridiumLongitude,IridiumRadiusKm,orgName,bPressTend,windDir,windSpeed,bPress,SurfaceSalinity,temperature7m,salinity7m,temperature15m,salinity15m
300234011881340,SFOS-MS-0009,10/9/2012 6:30:16 PM,70.861275,-157.837508,True,3,9.0,0.00,70.528030,-157.475430,5,School of Fisheries and Ocean Sciences,,,,,,,,,
300234011881340,SFOS-MS-0009,10/9/2012 6:00:09 PM,70.861316,-157.837375,True,3,6.5,0.75,70.528030,-157.475430,5,School of Fisheries and Ocean Sciences,,,,,,,,,
300234011881340,SFOS-MS-0009,10/9/2012 5:30:09 PM,70.861389,-157.836953,True,3,9.0,0.85,70.509220,-157.500190,3,School of Fisheries and Ocean Sciences,,,,,,,,,
300234011881340,SFOS-MS-0009,10/9/2012 5:00:07 PM,70.861322,-157.837606,True,3,9.0,0.75,70.501540,-157.439570,5,School of Fisheries and Ocean Sciences,,,,,,,,,
300234011881340,SFOS-MS-0009,10/9/2012 5:00:07 PM,70.861322,-157.837606,True,3,9.0,0.75,70.501540,-157.439570,5,School of Fisheries and Ocean Sciences,,,,,,,,,
300234011881340,SFOS-MS-0009,10/9/2012 4:30:07 PM,70.862600,-157.844889,True,3,9.0,1.10,70.516870,-157.560900,4,School of Fisheries and Ocean Sciences,,,,,,,,,
300234011881340,SFOS-MS-0009,10/9/2012 4:00:38 PM,70.864005,-157.860611,True,3,9.0,1.90,70.343360,-166.433450,335,School of Fisheries and Ocean Sciences,,,,,,,,,
300234011881340,SFOS-MS-0009,10/9/2012 3:30:07 PM,70.865216,-157.875981,True,3,9.0,2.30,70.516870,-157.560900,2,School of Fisheries and Ocean Sciences,,,,,,,,,
300234011881340,SFOS-MS-0009,10/9/2012 3:00:08 PM,70.866316,-157.892858,True,3,9.0,2.80,70.535700,-157.536230,11,School of Fisheries and Ocean Sciences,,,,,,,,,
300234011881340,SFOS-MS-0009,10/9/2012 2:30:07 PM,70.867297,-157.909156,True,3,9.0,3.05,70.528030,-157.475430,3,School of Fisheries and Ocean Sciences,,,,,,,,,
300234011881340,SFOS-MS-0009,10/9/2012 2:00:07 PM,70.867875,-157.926797,True,3,9.0,3.20,70.516870,-157.560900,2,School of Fisheries and Ocean Sciences,,,,,,,,,
300234011881340,SFOS-MS-0009,10/9/2012 1:30:07 PM,70.869430,-157.943853,True,3,9.0,3.30,70.516870,-157.560900,3,School of Fisheries and Ocean Sciences,,,,,,,,,
300234011881340,SFOS-MS-0009,10/9/2012 1:00:33 PM,70.870964,-157.961583,True,3,9.0,3.40,70.516870,-157.560900,3,School of Fisheries and Ocean Sciences,,,,,,,,,
300234011881340,SFOS-MS-0009,10/9/2012 12:30:08 PM,70.872297,-157.980819,True,3,9.0,3.45,70.498040,-157.585480,5,School of Fisheries and Ocean Sciences,,,,,,,,,
300234011881340,SFOS-MS-0009,10/9/2012 12:00:38 PM,70.873916,-157.999378,True,3,9.0,3.50,70.516870,-157.560900,4,School of Fisheries and Ocean Sciences,,,,,,,,,
300234011881340,SFOS-MS-0009,10/9/2012 11:30:13 AM,70.875891,-158.018689,True,3,9.0,3.60,70.478160,-160.339600,137,School of Fisheries and Ocean Sciences,,,,,,,,,
300234011881340,SFOS-MS-0009,10/9/2012 11:00:09 AM,70.877908,-158.038158,True,3,9.0,3.70,70.505640,-158.461900,3,School of Fisheries and Ocean Sciences,,,,,,,,,
300234011881340,SFOS-MS-0009,10/9/2012 10:30:08 AM,70.879491,-158.057636,True,3,9.0,3.75,70.505640,-158.461900,7,School of Fisheries and Ocean Sciences,,,,,,,,,
300234011881340,SFOS-MS-0009,10/9/2012 10:00:08 AM,70.880905,-158.076286,True,3,9.0,3.80,70.550930,-158.580900,11,School of Fisheries and Ocean Sciences,,,,,,,,,
300234011881340,SFOS-MS-0009,10/9/2012 9:30:18 AM,70.882541,-158.095131,True,3,9.0,3.90,70.532070,-158.825800,4,School of Fisheries and Ocean Sciences,,,,,,,,,
300234011881340,SFOS-MS-0009,10/9/2012 9:00:09 AM,70.884425,-158.112758,True,3,9.0,3.95,70.505640,-158.461900,5,School of Fisheries and Ocean Sciences,,,,,,,,,
300234011881340,SFOS-MS-0009,10/9/2012 8:30:37 AM,70.886500,-158.130911,True,3,9.0,4.00,70.550930,-158.580900,8,School of Fisheries and Ocean Sciences,,,,,,,,,
300234011881340,SFOS-MS-0009,10/9/2012 8:00:10 AM,70.888733,-158.148289,True,3,9.0,4.00,70.513210,-158.106980,8,School of Fisheries and Ocean Sciences,,,,,,,,,
300234011881340,SFOS-MS-0009,10/9/2012 7:30:38 AM,70.891372,-158.164714,True,3,9.0,4.10,70.550930,-158.580900,8,School of Fisheries and Ocean Sciences,,,,,,,,,
300234011881340,SFOS-MS-0009,10/9/2012 7:00:08 AM,70.894608,-158.181878,True,3,9.0,4.10,70.520740,-158.167860,3,School of Fisheries and Ocean Sciences,,,,,,,,,
300234011881340,SFOS-MS-0009,10/9/2012 6:30:08 AM,70.897550,-158.198469,True,3,9.0,4.10,70.558500,-158.119150,7,School of Fisheries and Ocean Sciences,,,,,,,,,
300234011881340,SFOS-MS-0009,10/9/2012 6:00:08 AM,70.900178,-158.215603,True,3,9.0,4.10,70.520740,-158.167860,5,School of Fisheries and Ocean Sciences,,,,,,,,,
300234011881340,SFOS-MS-0009,10/9/2012 5:30:08 AM,70.902555,-158.234561,True,3,9.0,4.10,70.547140,-158.204600,3,School of Fisheries and Ocean Sciences,,,,,,,,,
300234011881340,SFOS-MS-0009,10/9/2012 5:00:08 AM,70.904655,-158.253044,True,3,9.0,4.10,71.208000,-160.332300,109,School of Fisheries and Ocean Sciences,,,,,,,,,
300234011881340,SFOS-MS-0009,10/9/2012 4:30:08 AM,70.906733,-158.270819,True,3,9.0,4.10,70.496100,-154.158730,181,School of Fisheries and Ocean Sciences,,,,,,,,,
300234011881340,SFOS-MS-0009,10/9/2012 4:00:37 AM,70.908680,-158.288764,True,3,9.0,4.10,70.558500,-158.119150,4,School of Fisheries and Ocean Sciences,,,,,,,,,
300234011881340,SFOS-MS-0009,10/9/2012 3:30:08 AM,70.910839,-158.305442,True,3,9.0,4.10,70.539620,-158.143550,3,School of Fisheries and Ocean Sciences,,,,,,,,,
300234011881340,SFOS-MS-0009,10/9/2012 3:00:07 AM,70.913672,-158.323197,True,3,9.0,4.10,70.488670,-155.436500,6,School of Fisheries and Ocean Sciences,,,,,,,,,
300234011881340,SFOS-MS-0009,10/9/2012 2:30:07 AM,70.916044,-158.339930,True,3,9.0,4.10,70.458650,-154.361260,151,School of Fisheries and Ocean Sciences,,,,,,,,,
300234011881340,SFOS-MS-0009,10/9/2012 2:00:07 AM,70.919219,-158.357633,True,3,9.0,4.05,70.554630,-158.265750,2,School of Fisheries and Ocean Sciences,,,,,,,,,
300234011881340,SFOS-MS-0009,10/9/2012 1:30:07 AM,70.923078,-158.376828,True,3,9.0,4.05,70.566040,-158.180300,3,School of Fisheries and Ocean Sciences,,,,,,,,,
300234011881340,SFOS-MS-0009,10/9/2012 1:00:38 AM,70.926875,-158.395894,True,3,9.0,4.10,70.554630,-158.265750,2,School of Fisheries and Ocean Sciences,,,,,,,,,
300234011881340,SFOS-MS-0009,10/9/2012 12:30:07 AM,70.930766,-158.417150,True,3,9.0,4.10,70.535720,-158.289880,3,School of Fisheries and Ocean Sciences,,,,,,,,,
300234011881340,SFOS-MS-0009,10/9/2012 12:00:37 AM,70.934989,-158.436675,True,3,9.0,4.15,70.562080,-158.326980,2,School of Fisheries and Ocean Sciences,,,,,,,,,
300234011881340,SFOS-MS-0009,10/8/2012 11:30:38 PM,70.939278,-158.456667,True,3,9.0,4.15,70.554630,-158.265750,2,School of Fisheries and Ocean Sciences,,,,,,,,,
300234011881340,SFOS-MS-0009,10/8/2012 11:00:08 PM,70.943497,-158.476983,True,3,9.0,4.15,70.580560,-158.241530,3,School of Fisheries and Ocean Sciences,,,,,,,,,
300234011881340,SFOS-MS-0009,10/8/2012 10:30:08 PM,70.946822,-158.496664,True,3,9.0,4.20,70.554630,-158.265750,2,School of Fisheries and Ocean Sciences,,,,,,,,,
300234011881340,SFOS-MS-0009,10/8/2012 10:00:09 PM,70.950383,-158.516119,True,3,9.0,4.20,70.498290,-160.524860,113,School of Fisheries and Ocean Sciences,,,,,,,,,
300234011881340,SFOS-MS-0009,10/8/2012 9:30:09 PM,70.953636,-158.535611,True,3,9.0,4.20,70.554630,-158.265750,3,School of Fisheries and Ocean Sciences,,,,,,,,,
300234011881340,SFOS-MS-0009,10/8/2012 9:00:37 PM,70.957355,-158.553517,True,3,9.0,4.20,70.588030,-158.302850,1,School of Fisheries and Ocean Sciences,,,,,,,,,
300234011881340,SFOS-MS-0009,10/8/2012 8:30:21 PM,70.961247,-158.571767,True,3,9.0,4.20,70.576530,-158.388290,3,School of Fisheries and Ocean Sciences,,,,,,,,,
300234011881340,SFOS-MS-0009,10/8/2012 8:00:10 PM,70.965214,-158.589986,True,3,9.0,4.20,70.569110,-158.326980,2,School of Fisheries and Ocean Sciences,,,,,,,,,
300234011881340,SFOS-MS-0009,10/8/2012 7:30:36 PM,70.968791,-158.608872,True,3,9.0,4.20,70.576530,-158.388290,3,School of Fisheries and Ocean Sciences,,,,,,,,,
300234011881340,SFOS-MS-0009,10/8/2012 7:00:08 PM,70.972091,-158.628986,True,3,9.0,4.20,70.595460,-158.364260,7,School of Fisheries and Ocean Sciences,,,,,,,,,
300234011881340,SFOS-MS-0009,10/8/2012 6:30:09 PM,70.975403,-158.649986,True,3,9.0,4.20,70.583910,-158.449690,4,School of Fisheries and Ocean Sciences,,,,,,,,,
300234011881340,SFOS-MS-0009,10/8/2012 6:00:56 PM,70.978875,-158.671403,True,3,9.0,4.20,70.583910,-158.449690,3,School of Fisheries and Ocean Sciences,,,,,,,,,
300234011881340,SFOS-MS-0009,10/8/2012 5:30:08 PM,70.981925,-158.697580,True,3,9.0,4.20,70.583910,-158.449690,2,School of Fisheries and Ocean Sciences,,,,,,,,,
300234011881340,SFOS-MS-0009,10/8/2012 5:00:09 PM,70.984039,-158.723786,True,3,9.0,4.20,70.583910,-158.449690,2,School of Fisheries and Ocean Sciences,,,,,,,,,
300234011881340,SFOS-MS-0009,10/8/2012 4:30:09 PM,70.985416,-158.750225,True,3,9.5,4.20,70.591270,-158.511180,1,School of Fisheries and Ocean Sciences,,,,,,,,,
300234011881340,SFOS-MS-0009,10/8/2012 4:00:08 PM,70.986339,-158.778261,True,3,9.5,4.20,71.286000,-158.425750,7,School of Fisheries and Ocean Sciences,,,,,,,,,
300234011881340,SFOS-MS-0009,10/8/2012 3:30:08 PM,70.987200,-158.805753,True,3,9.5,4.15,70.591270,-158.511180,3,School of Fisheries and Ocean Sciences,,,,,,,,,
300234011881340,SFOS-MS-0009,10/8/2012 3:00:37 PM,70.987616,-158.832955,True,3,9.5,4.15,70.598590,-158.572750,4,School of Fisheries and Ocean Sciences,,,,,,,,,
300234011881340,SFOS-MS-0009,10/8/2012 2:30:09 PM,70.988180,-158.861880,True,3,9.5,4.15,70.583910,-158.449690,2,School of Fisheries and Ocean Sciences,,,,,,,,,
300234011881340,SFOS-MS-0009,10/8/2012 2:00:07 PM,70.989080,-158.889200,True,3,9.5,4.15,70.598590,-158.572750,2,School of Fisheries and Ocean Sciences,,,,,,,,,
300234011881340,SFOS-MS-0009,10/8/2012 1:30:07 PM,70.990155,-158.917028,True,3,9.5,4.20,70.572300,-158.534940,2,School of Fisheries and Ocean Sciences,,,,,,,,,
300234011881340,SFOS-MS-0009,10/8/2012 1:00:08 PM,70.990797,-158.947183,True,3,9.5,4.20,70.591270,-158.511180,2,School of Fisheries and Ocean Sciences,,,,,,,,,
300234011881340,SFOS-MS-0009,10/8/2012 12:30:07 PM,70.991600,-158.978427,True,3,9.5,4.25,70.579600,-158.596410,2,School of Fisheries and Ocean Sciences,,,,,,,,,
300234011881340,SFOS-MS-0009,10/8/2012 12:00:37 PM,70.992719,-159.008955,True,3,9.5,4.25,70.598590,-158.572750,2,School of Fisheries and Ocean Sciences,,,,,,,,,
300234011881340,SFOS-MS-0009,10/8/2012 11:30:11 AM,70.993808,-159.040486,True,3,9.5,4.30,70.579600,-158.596410,3,School of Fisheries and Ocean Sciences,,,,,,,,,
300234011881340,SFOS-MS-0009,10/8/2012 11:00:07 AM,70.994219,-159.073977,True,3,9.5,4.30,70.495340,-154.305100,179,School of Fisheries and Ocean Sciences,,,,,,,,,
300234011881340,SFOS-MS-0009,10/8/2012 10:30:07 AM,70.994572,-159.105305,True,3,9.5,4.30,70.579600,-158.596410,2,School of Fisheries and Ocean Sciences,,,,,,,,,
300234011881340,SFOS-MS-0009,10/8/2012 10:00:34 AM,70.994216,-159.139655,True,3,9.5,4.35,70.586880,-159.579800,6,School of Fisheries and Ocean Sciences,,,,,,,,,
300234011881340,SFOS-MS-0009,10/8/2012 9:30:07 AM,70.994758,-159.176397,True,3,9.5,4.40,70.594110,-159.119620,2,School of Fisheries and Ocean Sciences,,,,,,,,,
300234011881340,SFOS-MS-0009,10/8/2012 9:00:07 AM,70.995428,-159.215455,True,3,9.5,4.45,70.575100,-159.143010,20,School of Fisheries and Ocean Sciences,,,,,,,,,
300234011881340,SFOS-MS-0009,10/8/2012 8:30:08 AM,70.996261,-159.256247,True,3,9.5,4.50,71.132000,-159.181350,2,School of Fisheries and Ocean Sciences,,,,,,,,,
300234011881340,SFOS-MS-0009,10/8/2012 8:00:38 AM,70.996630,-159.296277,True,3,9.5,4.50,70.582290,-159.204650,6,School of Fisheries and Ocean Sciences,,,,,,,,,
300234011881340,SFOS-MS-0009,10/8/2012 7:30:27 AM,70.996966,-159.335022,True,3,9.5,4.50,71.228830,-164.328790,201,School of Fisheries and Ocean Sciences,,,,,,,,,
300234011881340,SFOS-MS-0009,10/8/2012 7:00:08 AM,70.997158,-159.376630,True,3,9.5,4.50,70.589450,-159.266370,2,School of Fisheries and Ocean Sciences,,,,,,,,,
300234011881340,SFOS-MS-0009,10/8/2012 6:30:08 AM,70.997883,-159.418391,True,3,9.5,4.55,71.132000,-159.181350,2,School of Fisheries and Ocean Sciences,,,,,,,,,
300234011881340,SFOS-MS-0009,10/8/2012 6:00:37 AM,70.998194,-159.459516,True,3,9.5,4.55,70.596570,-159.328170,3,School of Fisheries and Ocean Sciences,,,,,,,,,
300234011881340,SFOS-MS-0009,10/8/2012 5:30:08 AM,70.998616,-159.500847,True,3,9.5,4.60,70.596570,-159.328170,3,School of Fisheries and Ocean Sciences,,,,,,,,,
300234011881340,SFOS-MS-0009,10/8/2012 5:00:08 AM,70.998719,-159.539611,True,3,9.5,4.65,70.562080,-158.326980,72,School of Fisheries and Ocean Sciences,,,,,,,,,
300234011881340,SFOS-MS-0009,10/8/2012 4:30:08 AM,70.997397,-159.574052,True,3,9.5,4.65,71.366000,-159.390060,4,School of Fisheries and Ocean Sciences,,,,,,,,,
300234011881340,SFOS-MS-0009,10/8/2012 4:00:09 AM,70.995189,-159.609630,True,3,9.5,4.55,70.584590,-159.412980,3,School of Fisheries and Ocean Sciences,,,,,,,,,
300234011881340,SFOS-MS-0009,10/8/2012 3:30:08 AM,70.991739,-159.650311,True,3,9.5,4.05,70.596570,-159.328170,5,School of Fisheries and Ocean Sciences,,,,,,,,,
300234011881340,SFOS-MS-0009,10/8/2012 3:00:35 AM,70.988075,-159.697438,True,3,9.5,3.95,70.591640,-159.474850,2,School of Fisheries and Ocean Sciences,,,,,,,,,
300234011881340,SFOS-MS-0009,10/8/2012 2:30:09 AM,70.984355,-159.743713,True,3,10.0,4.00,71.366000,-159.390060,4,School of Fisheries and Ocean Sciences,,,,,,,,,
300234011881340,SFOS-MS-0009,10/8/2012 2:00:08 AM,70.980544,-159.788063,True,3,10.0,4.05,70.598640,-159.536810,2,School of Fisheries and Ocean Sciences,,,,,,,,,
300234011881340,SFOS-MS-0009,10/8/2012 1:30:37 AM,70.977497,-159.830824,True,3,10.0,4.00,70.572550,-159.497600,5,School of Fisheries and Ocean Sciences,,,,,,,,,
300234011881340,SFOS-MS-0009,10/8/2012 1:00:08 AM,70.974716,-159.873627,True,3,10.0,4.00,70.591640,-159.474850,3,School of Fisheries and Ocean Sciences,,,,,,,,,
300234011881340,SFOS-MS-0009,10/8/2012 12:30:08 AM,70.971908,-159.914522,True,3,10.0,3.90,70.525720,-155.382520,176,School of Fisheries and Ocean Sciences,,,,,,,,,
300234011881340,SFOS-MS-0009,10/8/2012 12:00:07 AM,70.969397,-159.954816,True,3,10.0,3.85,70.586510,-160.214000,4,School of Fisheries and Ocean Sciences,,,,,,,,,
300234011881340,SFOS-MS-0009,10/7/2012 11:30:37 PM,70.967519,-159.992736,True,3,10.0,3.80,70.579550,-159.559460,3,School of Fisheries and Ocean Sciences,,,,,,,,,
300234011881340,SFOS-MS-0009,10/7/2012 11:00:07 PM,70.965572,-160.033044,True,3,10.0,3.75,70.593430,-160.834200,3,School of Fisheries and Ocean Sciences,,,,,,,,,
300234011881340,SFOS-MS-0009,10/7/2012 10:30:07 PM,70.963547,-160.074441,True,3,10.0,3.75,70.560370,-160.438700,13,School of Fisheries and Ocean Sciences,,,,,,,,,
300234011881340,SFOS-MS-0009,10/7/2012 10:00:07 PM,70.961472,-160.114472,True,3,10.0,3.70,71.556000,-158.822000,116,School of Fisheries and Ocean Sciences,,,,,,,,,
300234011881340,SFOS-MS-0009,10/7/2012 9:30:07 PM,70.960361,-160.156272,True,3,10.0,3.70,71.320000,-160.145520,12,School of Fisheries and Ocean Sciences,,,,,,,,,
300234011881340,SFOS-MS-0009,10/7/2012 9:00:37 PM,70.960186,-160.197113,True,3,10.0,3.65,70.593430,-160.834200,7,School of Fisheries and Ocean Sciences,,,,,,,,,
300234011881340,SFOS-MS-0009,10/7/2012 8:30:26 PM,70.959597,-160.241505,True,3,10.0,3.65,70.574310,-160.105800,3,School of Fisheries and Ocean Sciences,,,,,,,,,
300234011881340,SFOS-MS-0009,10/7/2012 8:00:10 PM,70.958086,-160.283999,True,3,10.0,3.60,70.588030,-160.229880,4,School of Fisheries and Ocean Sciences,,,,,,,,,
300234011881340,SFOS-MS-0009,10/7/2012 7:30:09 PM,70.957061,-160.324999,True,3,10.0,3.60,71.320000,-160.145520,19,School of Fisheries and Ocean Sciences,,,,,,,,,
300234011881340,SFOS-MS-0009,10/7/2012 7:00:09 PM,70.955919,-160.365033,True,3,10.0,3.60,70.561850,-160.251980,2,School of Fisheries and Ocean Sciences,,,,,,,,,
300234011881340,SFOS-MS-0009,10/7/2012 6:30:08 PM,70.953505,-160.405277,True,3,10.0,3.60,70.561850,-160.251980,1,School of Fisheries and Ocean Sciences,,,,,,,,,
300234011881340,SFOS-MS-0009,10/7/2012 6:00:38 PM,70.950547,-160.444269,True,3,10.0,3.65,70.542690,-160.274010,3,School of Fisheries and Ocean Sciences,,,,,,,,,
300234011881340,SFOS-MS-0009,10/7/2012 5:30:12 PM,70.946939,-160.482416,True,3,10.0,3.70,70.549470,-160.335970,3,School of Fisheries and Ocean Sciences,,,,,,,,,
300234011881340,SFOS-MS-0009,10/7/2012 5:00:10 PM,70.943897,-160.521952,True,3,10.0,3.70,70.542690,-160.274010,6,School of Fisheries and Ocean Sciences,,,,,,,,,
300234011881340,SFOS-MS-0009,10/7/2012 4:30:08 PM,70.940583,-160.560330,True,3,10.0,3.70,70.549470,-160.335970,2,School of Fisheries and Ocean Sciences,,,,,,,,,
300234011881340,SFOS-MS-0009,10/7/2012 4:00:08 PM,70.937030,-160.596905,True,3,10.0,3.70,70.575670,-160.314050,2,School of Fisheries and Ocean Sciences,,,,,,,,,
300234011881340,SFOS-MS-0009,10/7/2012 3:30:11 PM,70.933769,-160.634177,True,3,10.0,3.75,70.537040,-160.419770,2,School of Fisheries and Ocean Sciences,,,,,,,,,
300234011881340,SFOS-MS-0009,10/7/2012 3:00:08 PM,70.930130,-160.670663,True,3,10.0,3.75,70.537040,-160.419770,3,School of Fisheries and Ocean Sciences,,,,,,,,,
300234011881340,SFOS-MS-0009,10/7/2012 2:30:35 PM,70.926833,-160.704680,True,3,10.0,3.75,70.543740,-160.481790,4,School of Fisheries and Ocean Sciences,,,,,,,,,
300234011881340,SFOS-MS-0009,10/7/2012 2:00:08 PM,70.923786,-160.736596,True,3,10.0,3.75,70.537040,-160.419770,3,School of Fisheries and Ocean Sciences,,,,,,,,,
300234011881340,SFOS-MS-0009,10/7/2012 1:30:08 PM,70.921616,-160.768094,True,3,10.0,3.75,70.543740,-160.481790,8,School of Fisheries and Ocean Sciences,,,,,,,,,
300234011881340,SFOS-MS-0009,10/7/2012 1:00:36 PM,70.919991,-160.799107,True,3,10.0,3.80,70.524540,-160.503370,5,School of Fisheries and Ocean Sciences,,,,,,,,,
300234011881340,SFOS-MS-0009,10/7/2012 12:30:07 PM,70.918828,-160.832396,True,3,10.0,3.80,70.537040,-160.419770,2,School of Fisheries and Ocean Sciences,,,,,,,,,
300234011881340,SFOS-MS-0009,10/7/2012 12:00:08 PM,70.917553,-160.865919,True,3,10.0,3.85,70.524540,-160.503370,2,School of Fisheries and Ocean Sciences,,,,,,,,,
300234011881340,SFOS-MS-0009,10/7/2012 11:30:07 AM,70.916489,-160.901113,True,3,10.0,3.85,70.596010,-162.135590,1530,School of Fisheries and Ocean Sciences,,,,,,,,,
300234011881340,SFOS-MS-0009,10/7/2012 11:00:07 AM,70.915578,-160.934116,True,3,10.0,3.85,70.550410,-160.543900,4,School of Fisheries and Ocean Sciences,,,,,,,,,
300234011881340,SFOS-MS-0009,10/7/2012 10:30:07 AM,70.915205,-160.964638,True,3,10.0,3.85,70.557040,-161.608000,1,School of Fisheries and Ocean Sciences,,,,,,,,,
300234011881340,SFOS-MS-0009,10/7/2012 10:00:38 AM,70.914903,-160.995424,True,3,10.0,3.85,70.531200,-160.565370,6,School of Fisheries and Ocean Sciences,,,,,,,,,
300234011881340,SFOS-MS-0009,10/7/2012 9:30:07 AM,70.914461,-161.029024,True,3,10.0,3.85,71.220000,-162.198480,85,School of Fisheries and Ocean Sciences,,,,,,,,,
300234011881340,SFOS-MS-0009,10/7/2012 9:00:07 AM,70.914103,-161.063455,True,3,10.0,3.95,70.544400,-161.896200,2,School of Fisheries and Ocean Sciences,,,,,,,,,
300234011881340,SFOS-MS-0009,10/7/2012 8:30:07 AM,70.913669,-161.098493,True,3,10.0,4.00,70.557040,-161.608000,2,School of Fisheries and Ocean Sciences,,,,,,,,,
300234011881340,SFOS-MS-0009,10/7/2012 8:00:07 AM,70.912580,-161.134616,True,3,10.0,4.00,70.544400,-161.896200,2,School of Fisheries and Ocean Sciences,,,,,,,,,
300234011881340,SFOS-MS-0009,10/7/2012 7:30:37 AM,70.911191,-161.171057,True,3,10.0,3.95,70.531700,-161.172950,3,School of Fisheries and Ocean Sciences,,,,,,,,,
300234011881340,SFOS-MS-0009,10/7/2012 7:00:09 AM,70.909547,-161.209243,True,3,10.0,3.95,70.402200,-155.398160,214,School of Fisheries and Ocean Sciences,,,,,,,,,
300234011881340,SFOS-MS-0009,10/7/2012 6:30:08 AM,70.907941,-161.247674,True,3,10.0,3.95,70.550950,-161.151850,4,School of Fisheries and Ocean Sciences,,,,,,,,,
300234011881340,SFOS-MS-0009,10/7/2012 6:00:37 AM,70.906114,-161.284727,True,3,10.0,3.95,70.525160,-161.110810,2,School of Fisheries and Ocean Sciences,,,,,,,,,
300234011881340,SFOS-MS-0009,10/7/2012 5:30:09 AM,70.903947,-161.321574,True,3,10.0,3.95,70.531700,-161.172950,2,School of Fisheries and Ocean Sciences,,,,,,,,,
300234011881340,SFOS-MS-0009,10/7/2012 5:00:08 AM,70.901839,-161.357207,True,3,10.0,3.90,70.538200,-161.235170,3,School of Fisheries and Ocean Sciences,,,,,,,,,
300234011881340,SFOS-MS-0009,10/7/2012 4:30:08 AM,70.899536,-161.390791,True,3,10.0,3.90,70.531700,-161.172950,2,School of Fisheries and Ocean Sciences,,,,,,,,,
300234011881340,SFOS-MS-0009,10/7/2012 4:00:08 AM,70.897011,-161.423829,True,3,10.0,3.90,70.538200,-161.235170,3,School of Fisheries and Ocean Sciences,,,,,,,,,
300234011881340,SFOS-MS-0009,10/7/2012 3:30:37 AM,70.894605,-161.457193,True,3,10.0,3.90,70.525400,-161.318280,3,School of Fisheries and Ocean Sciences,,,,,,,,,
300234011881340,SFOS-MS-0009,10/7/2012 3:00:10 AM,70.892883,-161.494499,True,3,10.0,3.95,70.489580,-159.902300,105,School of Fisheries and Ocean Sciences,,,,,,,,,
300234011881340,SFOS-MS-0009,10/7/2012 2:30:09 AM,70.891419,-161.532241,True,3,10.0,3.95,70.446550,-153.858700,317,School of Fisheries and Ocean Sciences,,,,,,,,,
300234011881340,SFOS-MS-0009,10/7/2012 2:00:09 AM,70.889978,-161.569460,True,3,10.0,3.95,70.544670,-161.297460,3,School of Fisheries and Ocean Sciences,,,,,,,,,
300234011881340,SFOS-MS-0009,10/7/2012 1:30:09 AM,70.888519,-161.605996,True,3,10.0,3.95,70.531820,-161.380540,2,School of Fisheries and Ocean Sciences,,,,,,,,,
300234011881340,SFOS-MS-0009,10/7/2012 1:00:08 AM,70.886847,-161.642618,True,3,10.0,4.00,70.538200,-161.442880,4,School of Fisheries and Ocean Sciences,,,,,,,,,
300234011881340,SFOS-MS-0009,10/7/2012 12:30:07 AM,70.885533,-161.677979,True,3,10.0,4.00,70.538200,-161.442880,2,School of Fisheries and Ocean Sciences,,,,,,,,,
300234011881340,SFOS-MS-0009,10/7/2012 12:00:37 AM,70.884591,-161.713335,True,3,10.0,4.00,70.531820,-161.380540,2,School of Fisheries and Ocean Sciences,,,,,,,,,
300234011881340,SFOS-MS-0009,10/6/2012 11:30:11 PM,70.883705,-161.751277,True,3,10.0,4.05,70.531820,-161.380540,3,School of Fisheries and Ocean Sciences,,,,,,,,,
300234011881340,SFOS-MS-0009,10/6/2012 11:00:08 PM,70.882366,-161.789779,True,3,10.0,4.05,70.538200,-161.442880,5,School of Fisheries and Ocean Sciences,,,,,,,,,
300234011881340,SFOS-MS-0009,10/6/2012 10:30:07 PM,70.880944,-161.827688,True,3,10.0,4.05,70.429260,-165.246640,150,School of Fisheries and Ocean Sciences,,,,,,,,,
300234011881340,SFOS-MS-0009,10/6/2012 10:00:07 PM,70.880139,-161.864335,True,3,10.0,4.05,70.538200,-161.442880,3,School of Fisheries and Ocean Sciences,,,,,,,,,
300234011881340,SFOS-MS-0009,10/6/2012 9:30:07 PM,70.879191,-161.901188,True,3,10.0,4.05,70.525240,-161.525750,1,School of Fisheries and Ocean Sciences,,,,,,,,,
300234011881340,SFOS-MS-0009,10/6/2012 9:00:38 PM,70.877872,-161.937760,True,3,10.0,4.05,70.531540,-161.588130,3,School of Fisheries and Ocean Sciences,,,,,,,,,
300234011881340,SFOS-MS-0009,10/6/2012 8:30:08 PM,70.875503,-161.975629,True,3,10.0,4.10,70.466400,-166.257500,167,School of Fisheries and Ocean Sciences,,,,,,,,,
300234011881340,SFOS-MS-0009,10/6/2012 8:00:08 PM,70.872489,-162.010579,True,3,10.0,4.10,71.156300,-159.305060,115,School of Fisheries and Ocean Sciences,,,,,,,,,
300234011881340,SFOS-MS-0009,10/6/2012 7:30:08 PM,70.869416,-162.042193,True,3,10.0,4.10,70.531540,-161.588130,5,School of Fisheries and Ocean Sciences,,,,,,,,,
300234011881340,SFOS-MS-0009,10/6/2012 7:00:08 PM,70.866414,-162.072421,True,3,10.0,4.10,70.518470,-162.707600,3,School of Fisheries and Ocean Sciences,,,,,,,,,
300234011881340,SFOS-MS-0009,10/6/2012 6:30:08 PM,70.863891,-162.102379,True,3,10.0,4.10,70.524700,-162.133200,4,School of Fisheries and Ocean Sciences,,,,,,,,,